This is the latest recevied weather packets stored in our database for station/object AD0YN. If no packets are shown the sender has not sent any weather packets the latest 10 day(s).
| Time | Temp. | Humidity | Pressure | Rain* | Wind** | Luminosity | Snow |
|---|---|---|---|---|---|---|---|
| 1777556248 | 10.56° C | 72% | 1018 hPa | 0 mm | - | 175 W/m² | - |
| 1777555944 | 10° C | 73% | 1018.1 hPa | 0 mm | - | 172 W/m² | - |
| 1777555640 | 10° C | 72% | 1018.1 hPa | 0 mm | - | 164 W/m² | - |
| 1777555337 | 10° C | 72% | 1017.9 hPa | 0 mm | - | 113 W/m² | - |
| 1777555033 | 10° C | 73% | 1018.1 hPa | 0 mm | - | 116 W/m² | - |
| 1777554730 | 9.44° C | 74% | 1018.2 hPa | 0 mm | - | 85 W/m² | - |
| 1777554427 | 9.44° C | 74% | 1018.2 hPa | 0 mm | - | 40 W/m² | - |
| 1777554123 | 9.44° C | 75% | 1018.4 hPa | 0 mm | - | 65 W/m² | - |
| 1777553821 | 9.44° C | 76% | 1018.4 hPa | 0 mm | - | 117 W/m² | - |
| 1777553517 | 8.89° C | 75% | 1018 hPa | 0 mm | - | 77 W/m² | - |
| 1777553213 | 8.89° C | 75% | 1018 hPa | 0 mm | - | 73 W/m² | - |
| 1777552910 | 8.89° C | 76% | 1018.1 hPa | 0 mm | - | 38 W/m² | - |
| 1777552609 | 8.89° C | 77% | 1017.9 hPa | 0 mm | - | 31 W/m² | - |
| 1777552306 | 8.33° C | 76% | 1018.1 hPa | 0 mm | - | 41 W/m² | - |
| 1777552003 | 8.33° C | 76% | 1017.8 hPa | 0 mm | - | 31 W/m² | - |
| 1777551700 | 8.33° C | 77% | 1017.8 hPa | 0 mm | - | 30 W/m² | - |
| 1777551398 | 8.33° C | 76% | 1018 hPa | 0 mm | - | 19 W/m² | - |
| 1777551094 | 8.33° C | 76% | 1017.7 hPa | 0 mm | - | 18 W/m² | - |
| 1777550791 | 8.33° C | 77% | 1017.9 hPa | 0 mm | - | 15 W/m² | - |
| 1777550488 | 8.33° C | 77% | 1018 hPa | 0 mm | - | 21 W/m² | - |
| 1777550184 | 8.33° C | 78% | 1017.9 hPa | 0 mm | - | 23 W/m² | - |
| 1777549880 | 8.33° C | 78% | 1017.9 hPa | 0 mm | - | 16 W/m² | - |
| 1777549576 | 8.33° C | 77% | 1017.7 hPa | 0 mm | - | 13 W/m² | - |
| 1777549272 | 8.33° C | 77% | 1018.1 hPa | 0 mm | - | 12 W/m² | - |
| 1777548969 | 8.33° C | 78% | 1017.9 hPa | 0 mm | - | 10 W/m² | - |
* Rain latest hour (hover to see other rain measurements)
** Current wind speed in m/s (hover to see current wind gust speed)